Weather History for KARG - October, 2010

Change the Weather History Date:

Wednesday, October 6, 2010

  Actual Average Record
Temperature  
Mean Temperature 59 °F -  
Max Temperature 77 °F 72 °F 87 °F (2007)
Min Temperature 41 °F 51 °F 39 °F (1999)
Degree Days  
Heating Degree Days 6    
Growing Degree Days 9 (Base 50)    
Moisture  
Dew Point 41 °F    
Average Humidity 56    
Maximum Humidity 81    
Minimum Humidity 29    
Precipitation  
Precipitation 0.00 in - - ()
Sea Level Pressure  
Sea Level Pressure 30.28 in    
Wind  
Wind Speed 3 mph (West)    
Max Wind Speed 10 mph    
Max Gust Speed -    
Visibility 10 miles    
Events      
Averages and records for this station are not official NWS values.
T = Trace of Precipitation, MM = Missing Value Source: NWS Daily Summary

Daily Weather History Graph

Daily Weather History Graph

Search for Another Location

Airport or City:

Trip Planner

Search our weather history database for the weather conditions in past years. The results will help you decide how hot, cold, wet, or windy it might be!

Date:

Astronomy

Oct. 06, 2010 Rise Set
Actual Time 7:02 AM CDT 6:40 PM CDT
Civil Twilight 6:37 AM CDT 7:05 PM CDT
Nautical Twilight 6:07 AM CDT 7:35 PM CDT
Astronomical Twilight 5:37 AM CDT 8:05 PM CDT
Moon 5:40 AM CDT (10/6) 5:43 PM CDT (10/6)
Length of Visible Light 12h 28m
Length of Day
11h 37m
Waning Crescent, 2% of the Moon is Illuminated
Oct 6
Waning Crescent
Oct 7
New
Oct 14
First Quarter
Oct 22
Full
Oct 30
Last Quarter

Hourly Weather History & Observations

Time (CDT) Temp. Windchill Dew Point Humidity Pressure Visibility Wind Dir Wind Speed Gust Speed Precip Events Conditions
12:15 AM 50.0 °F - 39.2 °F 66% 30.32 in 9.0 mi Calm Calm - N/A   Clear
12:35 AM 44.6 °F - 35.6 °F 71% 30.32 in 5.0 mi Calm Calm - N/A   Clear
12:55 AM 46.4 °F - 37.4 °F 71% 30.32 in 5.0 mi Calm Calm - N/A   Clear
1:15 AM 46.4 °F 45.2 °F 39.2 °F 76% 30.32 in 10.0 mi WNW 3.5 mph - N/A   Clear
1:35 AM 46.4 °F 43.5 °F 39.2 °F 76% 30.32 in 10.0 mi WNW 5.8 mph - N/A   Clear
1:55 AM 46.4 °F 44.3 °F 37.4 °F 71% 30.32 in 10.0 mi NW 4.6 mph - N/A   Clear
2:15 AM 44.6 °F - 37.4 °F 76% 30.32 in 10.0 mi Calm Calm - N/A   Clear
2:35 AM 42.8 °F - 35.6 °F 76% 30.32 in 10.0 mi Calm Calm - N/A   Clear
2:55 AM 42.8 °F - 37.4 °F 81% 30.32 in 10.0 mi Calm Calm - N/A   Clear
3:15 AM 42.8 °F - 37.4 °F 81% 30.32 in 8.0 mi Calm Calm - N/A   Clear
3:35 AM 44.6 °F - 37.4 °F 76% 30.31 in 10.0 mi Calm Calm - N/A   Clear
3:55 AM 44.6 °F - 37.4 °F 76% 30.31 in 8.0 mi Calm Calm - N/A   Clear
4:15 AM 42.8 °F - 37.4 °F 81% 30.31 in 5.0 mi Calm Calm - N/A   Clear
4:35 AM 42.8 °F - 35.6 °F 76% 30.30 in 8.0 mi Calm Calm - N/A   Clear
4:55 AM 42.8 °F 41.1 °F 35.6 °F 76% 30.30 in 10.0 mi North 3.5 mph - N/A   Clear
5:15 AM 42.8 °F 39.3 °F 35.6 °F 76% 30.31 in 9.0 mi NW 5.8 mph - N/A   Clear
5:35 AM 41.0 °F 36.4 °F 35.6 °F 81% 30.31 in 10.0 mi NW 6.9 mph - N/A   Clear
5:55 AM 41.0 °F 38.0 °F 35.6 °F 81% 30.31 in 10.0 mi NW 4.6 mph - N/A   Clear
6:15 AM 42.8 °F 41.1 °F 37.4 °F 81% 30.31 in 10.0 mi WNW 3.5 mph - N/A   Clear
6:35 AM 42.8 °F - 35.6 °F 76% 30.32 in 10.0 mi Calm Calm - N/A   Clear
6:55 AM 41.0 °F - 33.8 °F 76% 30.32 in 10.0 mi Calm Calm - N/A   Clear
7:15 AM 42.8 °F 40.1 °F 35.6 °F 76% 30.33 in 10.0 mi West 4.6 mph - N/A   Clear
7:35 AM 42.8 °F 41.1 °F 37.4 °F 81% 30.33 in 10.0 mi West 3.5 mph - N/A   Clear
7:55 AM 44.6 °F 43.1 °F 37.4 °F 76% 30.33 in 10.0 mi WNW 3.5 mph - N/A   Clear
8:15 AM 46.4 °F 44.3 °F 39.2 °F 76% 30.33 in 10.0 mi West 4.6 mph - N/A   Clear
8:35 AM 48.2 °F - 39.2 °F 71% 30.34 in 10.0 mi WNW 3.5 mph - N/A   Clear
8:55 AM 50.0 °F - 39.2 °F 66% 30.34 in 10.0 mi Calm Calm - N/A   Clear
9:15 AM 53.6 °F - 42.8 °F 67% 30.34 in 10.0 mi Calm Calm - N/A   Clear
9:35 AM 55.4 °F - 42.8 °F 63% 30.34 in 10.0 mi Calm Calm - N/A   Clear
9:55 AM 59.0 °F - 42.8 °F 55% 30.34 in 10.0 mi Calm Calm - N/A   Clear
10:15 AM 60.8 °F - 44.6 °F 55% 30.34 in 10.0 mi West 5.8 mph - N/A   Clear
10:35 AM 64.4 °F - 44.6 °F 49% 30.34 in 10.0 mi West 3.5 mph - N/A   Clear
10:55 AM 66.2 °F - 44.6 °F 46% 30.33 in 10.0 mi West 5.8 mph - N/A   Clear
11:15 AM 68.0 °F - 44.6 °F 43% 30.33 in 10.0 mi West 4.6 mph - N/A   Clear
11:35 AM 69.8 °F - 44.6 °F 40% 30.32 in 10.0 mi West 5.8 mph - N/A   Clear
11:55 AM 69.8 °F - 42.8 °F 38% 30.31 in 10.0 mi Calm Calm - N/A   Clear
12:15 PM 71.6 °F - 42.8 °F 35% 30.30 in 10.0 mi West 8.1 mph - N/A   Clear
12:35 PM 71.6 °F - 44.6 °F 38% 30.29 in 10.0 mi NW 8.1 mph - N/A   Clear
12:55 PM 73.4 °F - 42.8 °F 33% 30.28 in 10.0 mi West 8.1 mph - N/A   Clear
1:15 PM 73.4 °F - 42.8 °F 33% 30.26 in 10.0 mi West 4.6 mph - N/A   Clear
1:35 PM 73.4 °F - 42.8 °F 33% 30.25 in 10.0 mi West 9.2 mph - N/A   Clear
1:55 PM 73.4 °F - 42.8 °F 33% 30.24 in 10.0 mi WNW 8.1 mph - N/A   Clear
2:15 PM 75.2 °F - 44.6 °F 34% 30.22 in 10.0 mi WNW 9.2 mph - N/A   Clear
2:35 PM 75.2 °F - 44.6 °F 34% 30.21 in 10.0 mi West 6.9 mph - N/A   Clear
2:55 PM 75.2 °F - 42.8 °F 31% 30.21 in 10.0 mi NW 5.8 mph - N/A   Clear
3:15 PM 77.0 °F - 44.6 °F 32% 30.20 in 10.0 mi WNW 4.6 mph - N/A   Clear
3:35 PM 75.2 °F - 44.6 °F 34% 30.19 in 10.0 mi WSW 4.6 mph - N/A   Clear
3:55 PM 77.0 °F - 42.8 °F 29% 30.18 in 10.0 mi West 9.2 mph - N/A   Clear
4:15 PM 77.0 °F - 42.8 °F 29% 30.17 in 10.0 mi WNW 8.1 mph - N/A   Clear
4:35 PM 77.0 °F - 42.8 °F 29% 30.16 in 10.0 mi WSW 10.4 mph - N/A   Clear
4:55 PM 77.0 °F - 42.8 °F 29% 30.16 in 10.0 mi West 10.4 mph - N/A   Clear
5:15 PM 77.0 °F - 42.8 °F 29% 30.16 in 10.0 mi West 8.1 mph - N/A   Clear
5:35 PM 77.0 °F - 44.6 °F 32% 30.16 in 10.0 mi WSW 8.1 mph - N/A   Clear
5:55 PM 75.2 °F - 44.6 °F 34% 30.15 in 10.0 mi WSW 4.6 mph - N/A   Clear
6:15 PM 73.4 °F - 46.4 °F 38% 30.16 in 10.0 mi SW 6.9 mph - N/A   Clear
6:35 PM 71.6 °F - 46.4 °F 41% 30.15 in 10.0 mi SW 6.9 mph - N/A   Clear
6:55 PM 68.0 °F - 46.4 °F 46% 30.15 in 10.0 mi SW 4.6 mph - N/A   Clear
7:15 PM 69.8 °F - 46.4 °F 43% 30.15 in 10.0 mi WSW 8.1 mph - N/A   Clear
7:35 PM 68.0 °F - 46.4 °F 46% 30.15 in 10.0 mi WSW 6.9 mph - N/A   Clear
7:55 PM 66.2 °F - 46.4 °F 49% 30.16 in 10.0 mi WSW 6.9 mph - N/A   Clear
8:15 PM 66.2 °F - 46.4 °F 49% 30.16 in 10.0 mi WSW 5.8 mph - N/A   Clear
8:35 PM 64.4 °F - 46.4 °F 52% 30.16 in 10.0 mi WSW 6.9 mph - N/A   Clear
8:55 PM 60.8 °F - 46.4 °F 59% 30.16 in 10.0 mi WSW 4.6 mph - N/A   Clear
9:15 PM 60.8 °F - 46.4 °F 59% 30.16 in 10.0 mi WSW 4.6 mph - N/A   Clear
9:35 PM 60.8 °F - 46.4 °F 59% 30.16 in 10.0 mi Calm Calm - N/A   Clear
9:55 PM 60.8 °F - 46.4 °F 59% 30.16 in 10.0 mi SW 4.6 mph - N/A   Clear
10:15 PM 57.2 °F - 46.4 °F 67% 30.16 in 10.0 mi WSW 4.6 mph - N/A   Clear
10:35 PM 57.2 °F - 46.4 °F 67% 30.16 in 10.0 mi WSW 5.8 mph - N/A   Clear
10:55 PM 60.8 °F - 46.4 °F 59% 30.16 in 10.0 mi WSW 5.8 mph - N/A   Clear
11:15 PM 59.0 °F - 46.4 °F 63% 30.16 in 10.0 mi WSW 3.5 mph - N/A   Clear
11:35 PM 57.2 °F - 46.4 °F 67% 30.16 in 10.0 mi WSW 3.5 mph - N/A   Clear
11:55 PM 57.2 °F - 46.4 °F 67% 30.16 in 10.0 mi WSW 3.5 mph - N/A   Clear